Location: Ailly
(50.0793°N, 1.9944°E)
Time: 19:37:38
(UTC+00:00)

Cosmos 1743 Rocket - Pass Details

Date: 15 January 2026
Orbit: 597 x 626 km, 82.6° (Epoch: 14 February)

Event Time Altitude Azimuth Distance (km) Brightness Sun altitude
Rises 05:39:51 0° 182° (S) 2,899 7.1 -19.4°
Reaches altitude 10° 05:42:04 10° 181° (S) 1,995 6.3 -19.1°
Maximum altitude 05:46:28 72° 98° (E) 661 3.8 -18.4°
Drops below altitude 10° 05:50:54 10° 14° (NNE) 2,001 6.2 -17.7°
Sets 05:53:08 0° 12° (NNE) 2,908 7.0 -17.3°
